Weather History for Rochelle, IL

Change the Weather History Date:

Monday, April 29, 2013

  Actual Average (KRFD) Record (KRFD)
Temperature  
Mean Temperature 60 °F 54 °F  
Max Temperature 75 °F 66 °F 90 °F (1915)
Min Temperature 45 °F 43 °F 27 °F (1958)
Degree Days  
Heating Degree Days 6 11  
Month to date heating degree days 465  
Since 1 July heating degree days 6329  
Cooling Degree Days 0 0  
Month to date cooling degree days 0  
Year to date cooling degree days 0  
Growing Degree Days 10 (Base 50)    
Moisture  
Dew Point 52 °F    
Average Humidity 73    
Maximum Humidity 98    
Minimum Humidity 43    
Precipitation  
Precipitation 0.00 in 0.12 in 2.62 in (1963)
Month to date precipitation 3.23  
Year to date precipitation 8.33  
Snow  
Snow 0.00 in 0.00 in T in (2008)
Month to date snowfall 0.9  
Since 1 July snowfall 36.7  
Snow Depth -    
Sea Level Pressure  
Sea Level Pressure 29.83 in    
Wind  
Wind Speed 11 mph (South)    
Max Wind Speed 26 mph    
Max Gust Speed 31 mph    
Visibility 8 miles    
Events      
T = Trace of Precipitation, MM = Missing Value Source: NWS Daily Summary

Daily Weather History Graph

Daily Weather History Graph

Search for Another Location

Airport:

Trip Planner

Search our weather history database for the weather conditions in past years. The results will help you decide how hot, cold, wet, or windy it might be!

Date:

Astronomy

Apr. 29, 2013 Rise Set
Actual Time 5:54 AM CDT 7:53 PM CDT
Civil Twilight 5:24 AM CDT 8:23 PM CDT
Nautical Twilight 4:47 AM CDT 9:00 PM CDT
Astronomical Twilight 4:07 AM CDT 9:40 PM CDT
Moon No Moon Rise 9:13 AM CDT (4/29)
Length of Visible Light 14h 58m
Length of Day
13h 58m
Waning Gibbous, 80% of the Moon is Illuminated
Apr 29
Waning Gibbous
May 2
Last Quarter
May 9
New
May 17
First Quarter
May 24
Full

Hourly Weather History & Observations

Time (CDT) Temp. Windchill Dew Point Humidity Pressure Visibility Wind Dir Wind Speed Gust Speed Precip Events Conditions
12:15 AM 53.2 °F - 50.9 °F 92% 29.86 in 10.0 mi SSW 10.4 mph - N/A   Clear
12:35 AM 54.3 °F - 51.3 °F 89% 29.87 in 10.0 mi SSW 9.2 mph - N/A   Clear
12:55 AM 51.6 °F - 49.6 °F 93% 29.87 in 7.0 mi South 6.9 mph - N/A   Clear
1:15 AM 51.1 °F - 49.3 °F 94% 29.87 in 7.0 mi South 6.9 mph - N/A   Clear
1:35 AM 50.2 °F - 49.1 °F 96% 29.87 in 7.0 mi South 8.1 mph - N/A   Clear
1:55 AM 50.9 °F - 49.6 °F 95% 29.86 in 7.0 mi SSW 8.1 mph - N/A   Clear
2:15 AM 51.8 °F - 50.0 °F 94% 29.87 in 7.0 mi SSW 8.1 mph - N/A   Clear
2:35 AM 50.5 °F - 49.1 °F 95% 29.87 in 7.0 mi SW 8.1 mph - N/A   Clear
2:55 AM 49.6 °F - 48.4 °F 95% 29.86 in 5.0 mi SSW 6.9 mph - N/A   Clear
3:15 AM 49.3 °F - 48.2 °F 96% 29.86 in 5.0 mi South 8.1 mph - N/A   Clear
3:35 AM 48.7 °F - 47.7 °F 96% 29.86 in 5.0 mi South 6.9 mph - N/A   Clear
3:55 AM 47.7 °F - 46.6 °F 96% 29.87 in 4.0 mi South 5.8 mph - N/A   Clear
4:15 AM 47.7 °F - 46.8 °F 97% 29.87 in 4.0 mi SSW 5.8 mph - N/A   Clear
4:35 AM 48.2 °F - 47.3 °F 97% 29.88 in 5.0 mi SW 3.5 mph - N/A   Clear
4:55 AM 47.3 °F - 46.4 °F 97% 29.89 in 4.0 mi Calm Calm - N/A   Clear
5:15 AM 47.5 °F - 46.8 °F 97% 29.89 in 3.0 mi Calm Calm - N/A   Clear
5:55 AM 45.1 °F 43.7 °F 44.4 °F 97% 29.90 in 1.5 mi South 3.5 mph - N/A   Mist
6:15 AM 45.3 °F - 44.6 °F 97% 29.90 in 1.8 mi Calm Calm - N/A   Mist
6:35 AM 46.4 °F - 45.7 °F 97% 29.90 in 2.0 mi Calm Calm - N/A   Clear
6:55 AM 48.2 °F - 47.7 °F 98% 29.90 in 4.0 mi Calm Calm - N/A   Clear
7:15 AM 49.6 °F - 49.1 °F 98% 29.90 in 5.0 mi Calm Calm - N/A   Clear
7:35 AM 51.4 °F - 50.0 °F 95% 29.90 in 7.0 mi Calm Calm - N/A   Clear
7:55 AM 53.6 °F - 50.9 °F 91% 29.91 in 7.0 mi SSW 4.6 mph - N/A   Clear
8:15 AM 54.5 °F - 51.4 °F 89% 29.90 in 10.0 mi SSW 5.8 mph - N/A   Clear
8:35 AM 55.4 °F - 51.6 °F 87% 29.90 in 10.0 mi SSW 6.9 mph - N/A   Clear
8:55 AM 56.3 °F - 51.8 °F 85% 29.90 in 10.0 mi South 5.8 mph - N/A   Clear
9:15 AM 59.0 °F - 52.7 °F 80% 29.89 in 10.0 mi South 9.2 mph - N/A   Clear
9:35 AM 61.2 °F - 52.0 °F 72% 29.88 in 10.0 mi SSW 8.1 mph - N/A   Clear
9:55 AM 63.5 °F - 52.9 °F 68% 29.88 in 10.0 mi SSW 6.9 mph - N/A   Clear
10:15 AM 64.9 °F - 51.8 °F 62% 29.87 in 10.0 mi South 12.7 mph - N/A   Clear
10:35 AM 66.6 °F - 51.4 °F 58% 29.87 in 10.0 mi South 12.7 mph 16.1 mph N/A   Clear
10:55 AM 67.1 °F - 51.6 °F 57% 29.87 in 10.0 mi South 15.0 mph 19.6 mph N/A   Clear
11:15 AM 68.2 °F - 52.2 °F 56% 29.86 in 10.0 mi South 16.1 mph - N/A   Clear
11:35 AM 68.7 °F - 51.6 °F 54% 29.86 in 10.0 mi South 16.1 mph 20.7 mph N/A   Clear
11:55 AM 69.3 °F - 51.4 °F 53% 29.86 in 10.0 mi SSE 18.4 mph 23.0 mph N/A   Clear
12:15 PM 70.3 °F - 50.7 °F 50% 29.86 in 10.0 mi South 17.3 mph 23.0 mph N/A   Clear
12:35 PM 71.1 °F - 50.7 °F 49% 29.84 in 10.0 mi SSE 17.3 mph 23.0 mph N/A   Clear
12:55 PM 70.5 °F - 50.2 °F 48% 29.84 in 10.0 mi South 16.1 mph - N/A   Scattered Clouds
1:15 PM 71.4 °F - 51.4 °F 49% 29.83 in 10.0 mi South 18.4 mph 25.3 mph N/A   Scattered Clouds
1:35 PM 72.1 °F - 50.0 °F 46% 29.82 in 10.0 mi SSE 21.9 mph - N/A   Clear
1:55 PM 73.0 °F - 50.4 °F 45% 29.81 in 10.0 mi South 20.7 mph 28.8 mph N/A   Clear
2:15 PM 73.2 °F - 50.0 °F 44% 29.81 in 10.0 mi SSE 18.4 mph 25.3 mph N/A   Clear
2:35 PM 74.1 °F - 50.7 °F 44% 29.81 in 10.0 mi SSE 18.4 mph 25.3 mph N/A   Scattered Clouds
2:55 PM 73.8 °F - 51.3 °F 45% 29.80 in 10.0 mi South 20.7 mph 26.5 mph N/A   Scattered Clouds
3:15 PM 74.1 °F - 51.4 °F 45% 29.79 in 10.0 mi SSE 19.6 mph 23.0 mph N/A   Clear
3:35 PM 74.5 °F - 50.9 °F 43% 29.78 in 10.0 mi SSE 19.6 mph 28.8 mph N/A   Clear
3:55 PM 74.7 °F - 51.1 °F 44% 29.77 in 10.0 mi SSE 20.7 mph 27.6 mph N/A   Clear
4:15 PM 74.3 °F - 52.7 °F 47% 29.76 in 10.0 mi SSE 17.3 mph 26.5 mph N/A   Clear
4:35 PM 73.8 °F - 53.8 °F 50% 29.74 in 10.0 mi SSE 23.0 mph 28.8 mph N/A   Clear
4:55 PM 74.3 °F - 54.3 °F 50% 29.74 in 10.0 mi South 23.0 mph 28.8 mph N/A   Clear
5:15 PM 74.1 °F - 55.0 °F 51% 29.74 in 10.0 mi South 21.9 mph 26.5 mph N/A   Clear
5:35 PM 73.6 °F - 55.0 °F 52% 29.74 in 10.0 mi South 26.5 mph 31.1 mph N/A   Clear
5:55 PM 72.5 °F - 55.4 °F 55% 29.74 in 10.0 mi South 25.3 mph 31.1 mph N/A   Clear
6:15 PM 72.0 °F - 55.8 °F 57% 29.74 in 10.0 mi South 20.7 mph 28.8 mph N/A   Clear
6:35 PM 70.7 °F - 56.3 °F 60% 29.75 in 10.0 mi South 16.1 mph 23.0 mph N/A   Clear
6:55 PM 70.7 °F - 56.3 °F 60% 29.76 in 10.0 mi South 17.3 mph 23.0 mph N/A   Clear
7:15 PM 69.8 °F - 56.5 °F 63% 29.76 in 10.0 mi SSE 17.3 mph - N/A   Clear
7:35 PM 68.9 °F - 56.8 °F 65% 29.76 in 10.0 mi South 13.8 mph 25.3 mph N/A   Clear
7:55 PM 68.0 °F - 56.8 °F 67% 29.76 in 10.0 mi South 16.1 mph - N/A   Clear
8:15 PM 66.7 °F - 56.5 °F 70% 29.76 in 10.0 mi South 16.1 mph - N/A   Clear
8:35 PM 66.2 °F - 56.5 °F 71% 29.77 in 10.0 mi South 16.1 mph - N/A   Clear
8:55 PM 65.7 °F - 56.5 °F 72% 29.77 in 10.0 mi SSE 16.1 mph - N/A   Clear
9:15 PM 65.1 °F - 56.7 °F 74% 29.78 in 10.0 mi SSE 15.0 mph - N/A   Clear
9:35 PM 64.4 °F - 56.5 °F 75% 29.77 in 10.0 mi SSE 15.0 mph - N/A   Clear
9:55 PM 64.4 °F - 57.4 °F 78% 29.78 in 10.0 mi SSE 13.8 mph - N/A   Clear
10:15 PM 64.4 °F - 57.4 °F 78% 29.78 in 10.0 mi SSE 15.0 mph 20.7 mph N/A   Clear
10:35 PM 63.9 °F - 57.2 °F 79% 29.78 in 10.0 mi SSE 15.0 mph - N/A   Clear
10:55 PM 63.5 °F - 57.2 °F 80% 29.78 in 10.0 mi SSE 15.0 mph - N/A   Clear
11:15 PM 63.5 °F - 56.7 °F 78% 29.78 in 10.0 mi SSE 16.1 mph - N/A   Clear
11:35 PM 62.8 °F - 56.5 °F 80% 29.77 in 10.0 mi SSE 13.8 mph - N/A   Scattered Clouds
11:55 PM 62.2 °F - 56.3 °F 81% 29.77 in 10.0 mi SSE 15.0 mph - N/A   Scattered Clouds